Location: Saleratus Ranch
(37.7914°N, 109.6108°W)
Time: 13:37:53
(UTC-07:00)

OTV 5 (USA 277) - Visible Passes

Search period start: 24 November 2017 00:00
Search period end: 04 December 2017 00:00
Orbit: 404 x 417 km, 43.0° (Epoch: 07 September)

Date Brightness Start Highest point End Pass type
(mag) Time Alt. Az. Time Alt. Az. Time Alt. Az.
29 Nov ? 18:20:48 10° SSE 18:21:56 12° SE 18:21:56 12° SE visible
30 Nov ? 19:04:39 10° SW 19:06:17 25° SSW 19:06:17 25° SSW visible
01 Dec ? 18:13:56 10° SSW 18:16:53 29° SSE 18:17:49 25° ESE visible
02 Dec ? 17:23:31 10° S 17:25:56 19° SE 17:28:22 10° E visible
02 Dec ? 18:59:38 10° WSW 19:02:02 44° W 19:02:02 44° W visible
03 Dec ? 18:08:34 10° WSW 18:11:55 71° SSE 18:13:27 29° ENE visible
